This demonstration page uses our WeatherBlox Daily Observations layout. Learn more.

Left ArrowRight Arrow

34.16533, -84.80231

Hourly Observations for July 1, 2020

Temp ( °F °C ) Dew Point ( °F °C ) Humidity (%) Winds ( mph kmh ) Pressure ( in mb ) Visibility ( mi km ) Precip ( " mm )
12:04 am 00:04 Partly Cloudy 73 22.8 69 20.6 87 87 Calm 29.94 1014 10 16 0.00 0.00
12:12 am 00:12 Mostly Cloudy 73 22.8 69 20.6 87 87 VRB 3 6 29.94 1014 10 16 0.00 0.00
12:37 am 00:37 Mostly Clear 72 22.2 69 20.6 91 91 Calm 29.94 1014 10 16 0.00 0.00
12:53 am 00:53 Clear 72 22.2 69 20.6 91 91 Calm 29.93 1014 10 16 0.00 0.00
1:53 am 01:53 Clear 71 21.7 68 20 90 90 VRB 3 6 29.91 1013 10 16 0.00 0.00
2:53 am 02:53 Clear 71 21.7 68 20 90 90 Calm 29.91 1013 10 16 0.00 0.00
3:53 am 03:53 Clear 70 21.1 67 19.4 90 90 Calm 29.92 1013 10 16 0.00 0.00
4:53 am 04:53 Clear 70 21.1 67 19.4 90 90 Calm 29.92 1013 10 16 0.00 0.00
5:53 am 05:53 Clear 69 20.6 66 18.9 90 90 E 3 6 29.88 1012 10 16 0.00 0.00
6:53 am 06:53 Sunny 70 21.1 66 18.9 87 87 Calm 29.90 1012 10 16 0.00 0.00
7:53 am 07:53 Sunny 71 21.7 67 19.4 87 87 Calm 29.91 1013 10 16 0.00 0.00
8:44 am 08:44 Mostly Cloudy 72 22.2 68 20 87 87 Calm 29.94 1014 10 16 0.00 0.00
8:53 am 08:53 Cloudy 73 22.8 68 20 84 84 Calm 29.92 1013 10 16 0.00 0.00
9:23 am 09:23 Mostly Cloudy 74 23.3 68 20 82 82 VRB 3 6 29.94 1014 10 16 0.00 0.00
9:53 am 09:53 Mostly Cloudy 76 24.4 68 20 77 77 VRB 3 6 29.94 1014 10 16 0.00 0.00
10:32 am 10:32 Mostly Cloudy 76 24.4 68 20 77 77 Calm 29.95 1014 10 16 0.00 0.00
10:53 am 10:53 Cloudy 75 23.9 68 20 79 79 Calm 29.95 1014 10 16 0.00 0.00
11:53 am 11:53 Cloudy 75 23.9 68 20 79 79 Calm 29.96 1015 10 16 0.00 0.00
12:06 pm 12:06 Cloudy 76 24.4 68 20 77 77 VRB 3 6 29.97 1015 10 16 0.00 0.00
12:53 pm 12:53 Mostly Cloudy 78 25.6 68 20 71 71 VRB 3 6 29.95 1014 10 16 0.00 0.00
1:01 pm 13:01 Partly Cloudy 80 26.7 69 20.6 69 69 undefined N/A 29.95 1014 10 16 0.00 0.00
1:11 pm 13:11 Mostly Cloudy 81 27.2 69 20.6 67 67 Calm 29.94 1014 10 16 0.00 0.00
1:40 pm 13:40 Mostly Cloudy 81 27.2 68 20 65 65 Calm 29.93 1014 10 16 0.00 0.00
1:53 pm 13:53 Partly Cloudy 82 27.8 68 20 63 63 Calm 29.93 1013 10 16 0.00 0.00
2:30 pm 14:30 Mostly Cloudy 78 25.6 68 20 71 71 VRB 3 6 29.93 1013 10 16 0.00 0.00
2:37 pm 14:37 Mostly Cloudy 77 25 68 20 74 74 VRB 3 6 29.94 1014 10 16 0.00 0.00
2:53 pm 14:53 Cloudy with Light Rain 76 24.4 69 20.6 79 79 VRB 3 6 29.93 1013 8 13 0.00 0.00
3:53 pm 15:53 Mostly Sunny 81 27.2 68 20 65 65 N 9 15 29.90 1012 10 16 0.00 0.00
4:53 pm 16:53 Mostly Cloudy 80 26.7 69 20.6 69 69 NNW 5 7 29.87 1012 10 16 0.00 0.00
5:53 pm 17:53 Sunny 83 28.3 68 20 61 61 VRB 3 6 29.87 1011 10 16 0.00 0.00
6:53 pm 18:53 Sunny 81 27.2 68 20 65 65 Calm 29.89 1012 10 16 0.00 0.00
7:53 pm 19:53 Partly Cloudy 80 26.7 69 20.6 69 69 Calm 29.90 1013 10 16 0.00 0.00
8:53 pm 20:53 Sunny 78 25.6 69 20.6 74 74 Calm 29.90 1012 10 16 0.00 0.00
9:53 pm 21:53 Clear 74 23.3 69 20.6 85 85 Calm 29.89 1012 10 16 0.00 0.00
10:53 pm 22:53 Clear 74 23.3 69 20.6 85 85 Calm 29.90 1012 10 16 0.00 0.00
11:53 pm 23:53 Clear 73 22.8 68 20 84 84 Calm 29.89 1012 10 16 0.00 0.00

Powered by AerisWeather